DW8306 Weather Reports


time (UTC)temp
C
wind
direction
speed
KPH
gust
KPH
rain 1hr
cm
rain 24hr
cm
rain mn
cm
humidity
%
barometer
mb
20260510191526 29 36 3.2 11.3 0.00 0.00 0.00 61 1015.3
20260510190012 28 63 0.0 11.3 0.00 0.00 0.00 65 1014.7
20260510184505 29 87 3.2 9.7 0.00 0.00 0.00 63 1014.9
20260510183006 29 127 0.0 1.6 0.00 0.00 0.00 65 1014.8
20260510181613 28 29 1.6 9.7 0.00 0.00 0.00 67 1014.8
20260510174511 29 354 1.6 8.0 0.00 0.00 0.00 65 1014.5
20260510173011 28 38 3.2 11.3 0.00 0.00 0.00 65 1014.0
20260510171510 28 64 4.8 12.9 0.00 0.00 0.00 68 1013.9
20260510170007 27 143 0.0 8.0 0.00 0.00 0.00 74 1013.6
20260510164511 27 40 0.0 14.5 0.00 0.00 0.00 74 1013.3
20260510163006 26 69 0.0 11.3 0.00 0.00 0.00 75 1013.2
20260510161506 26 48 0.0 6.4 0.00 0.00 0.00 77 1013.4
20260510160132 25 27 0.0 8.0 0.00 0.00 0.00 79 1012.9
20260510154515 23 164 0.0 6.4 0.00 0.00 0.00 85 1012.2
20260510153104 23 302 0.0 0.0 0.00 0.00 0.00 85 1012.5
20260510151615 23 224 0.0 0.0 0.00 0.00 0.00 86 1012.8
20260510150019 22 189 0.0 3.2 0.00 0.00 0.00 89 1012.9
20260510144625 21 57 0.0 0.0 0.00 0.00 0.00 90 1013.5
20260510143105 21 130 0.0 1.6 0.00 0.00 0.00 89 1014.2
20260510141609 21 359 0.0 0.0 0.00 0.00 0.00 89 1014.8
20260510140113 21 73 0.0 1.6 0.00 0.00 0.00 89 1015.0
20260510134520 21 87 0.0 1.6 0.00 0.00 0.00 90 1015.3
20260510133014 21 54 0.0 3.2 0.00 0.00 0.00 92 1015.4
20260510131515 21 78 0.0 0.0 0.00 0.00 0.00 92 1015.7
20260510130020 20 354 0.0 0.0 0.00 0.00 0.00 92 1015.7
20260510124508 20 316 0.0 0.0 0.00 0.00 0.00 92 1016.0
20260510123110 20 294 0.0 0.0 0.00 0.00 0.00 91 1016.0
20260510121518 20 235 0.0 1.6 0.00 0.00 0.00 91 1015.8
20260510120012 20 269 1.6 8.0 0.00 0.00 0.00 91 1015.8
20260510114511 20 244 1.6 11.3 0.00 0.00 0.00 92 1015.6
20260510113106 20 296 0.0 0.0 0.00 0.00 0.00 93 1015.1
20260510111607 20 47 0.0 0.0 0.00 0.00 0.00 93 1014.0
20260510110031 20 47 0.0 0.0 0.00 0.00 0.00 93 1013.5
20260510104606 20 47 0.0 0.0 0.00 0.00 0.00 93 1013.5
20260510103010 20 47 0.0 0.0 0.00 0.00 0.00 93 1013.0
20260510101515 20 59 0.0 0.0 0.00 0.00 0.00 93 1012.8
20260510100006 20 59 0.0 0.0 0.00 0.00 0.00 93 1012.8
20260510094539 20 59 0.0 0.0 0.00 0.00 0.00 93 1013.1
20260510093020 20 59 0.0 0.0 0.00 0.00 0.00 93 1012.9
20260510091606 20 59 0.0 0.0 0.00 0.00 0.00 93 1013.0
20260510090010 20 59 0.0 0.0 0.00 0.00 0.00 93 1012.8
20260510084608 20 59 0.0 0.0 0.00 0.00 0.00 93 1012.4
20260510083103 20 59 0.0 0.0 0.00 0.00 0.00 93 1011.9
20260510080006 20 59 0.0 0.0 0.00 1.09 0.00 93 1011.1
20260510074506 20 59 0.0 0.0 0.00 1.09 0.00 93 1011.3
20260510073018 20 59 0.0 0.0 0.00 1.09 0.00 93 1011.2
20260510071517 20 59 0.0 0.0 0.00 1.09 0.00 93 1011.4
20260510070028 19 59 0.0 0.0 0.00 1.09 0.00 93 1011.7
20260510063017 19 50 0.0 0.0 0.00 3.05 0.00 93 1011.2
20260510061514 19 60 0.0 0.0 0.00 3.05 0.00 93 1011.2
20260510060021 19 60 0.0 0.0 0.00 3.05 0.00 93 1011.3
20260510054617 19 60 0.0 0.0 0.00 3.05 0.00 93 1011.2
20260510053043 19 60 0.0 0.0 0.00 3.05 0.00 94 1011.2
20260510051515 20 60 0.0 0.0 0.00 3.05 0.00 94 1011.1
20260510050018 20 58 0.0 0.0 0.00 3.05 0.00 94 1011.3
20260510044518 19 54 0.0 0.0 0.00 3.05 3.05 93 1011.2
20260510043033 20 54 0.0 0.0 0.00 3.05 3.05 93 1011.2
20260510041604 20 54 0.0 0.0 0.00 3.05 3.05 92 1011.3
20260510040008 20 43 0.0 0.0 0.00 3.05 3.05 92 1011.3
20260510034504 20 28 0.0 0.0 0.00 3.05 3.05 91 1011.5
20260510033113 20 28 0.0 0.0 0.00 3.05 3.05 91 1011.6
20260510031604 20 28 0.0 0.0 0.00 3.05 3.05 90 1011.5
20260510030105 20 28 0.0 0.0 0.00 3.05 3.05 90 1011.3
20260510024614 21 27 0.0 0.0 0.00 3.05 3.05 89 1011.2
20260510023017 21 48 0.0 0.0 0.00 3.05 3.05 89 1010.9
20260510021608 21 44 0.0 0.0 0.00 3.05 3.05 88 1010.8
20260510020107 21 68 0.0 0.0 0.00 3.05 3.05 89 1010.4
20260510014516 21 332 0.0 0.0 0.00 3.05 3.05 89 1010.2
20260510013022 21 233 0.0 0.0 0.00 3.05 3.05 88 1009.9
20260510011604 21 135 0.0 0.0 0.00 3.05 3.05 86 1009.9
20260510010005 21 300 0.0 0.0 0.00 3.05 3.05 85 1010.2
20260510004506 22 63 0.0 1.6 0.00 3.05 3.05 84 1010.1
20260510003007 22 190 0.0 11.3 0.00 3.05 3.05 84 1009.8
20260510001522 22 273 0.0 3.2 0.00 3.05 3.05 84 1009.5
20260510000107 22 60 0.0 0.0 0.00 3.05 3.05 84 1009.5
20260509234606 22 283 0.0 9.7 0.00 3.05 3.05 85 1009.3
20260509233010 23 291 1.6 8.0 0.00 3.05 3.05 84 1009.3
20260509231518 25 255 1.6 12.9 0.00 3.05 3.05 80 1009.1
20260509230016 27 92 0.0 0.0 0.00 3.05 3.05 78 1008.7
20260509224619 27 56 0.0 0.0 0.00 3.05 3.05 77 1008.7
20260509223106 27 255 0.0 0.0 0.00 3.05 3.05 76 1008.3
20260509221522 27 61 0.0 0.0 0.00 3.05 3.05 76 1008.2
20260509220118 27 85 0.0 0.0 0.00 3.05 3.05 77 1008.1
20260509214632 27 4 0.0 0.0 0.00 3.05 3.05 75 1008.1
20260509213026 26 71 0.0 0.0 0.00 3.05 3.05 81 1008.4
20260509211620 26 75 0.0 0.0 0.00 3.05 3.05 80 1008.4
20260509210007 26 86 0.0 0.0 0.00 3.05 3.05 79 1008.7
20260509204512 26 70 0.0 0.0 0.00 3.05 3.05 78 1008.8
20260509203118 26 101 0.0 0.0 0.00 3.05 3.05 82 1009.0
20260509201516 26 114 0.0 0.0 0.00 3.05 3.05 81 1009.1
20260509200105 26 110 0.0 0.0 0.00 3.05 3.05 80 1009.2
20260509194514 25 71 0.0 0.0 0.00 3.05 3.05 84 1009.3
20260509193026 25 52 0.0 0.0 0.00 3.05 3.05 81 1009.4